TimeCDT,TemperatureF,Dew PointF,Humidity,Sea Level PressureIn,VisibilityMPH,Wind Direction,Wind SpeedMPH,Gust SpeedMPH,PrecipitationIn,Events,Conditions,WindDirDegrees,DateUTC
12:15 AM,69.8,64.4,83,30.25,10.0,Calm,Calm,-,N/A,,Clear,0,2013-07-15 05:15:00
12:35 AM,68.0,64.4,88,30.26,10.0,Calm,Calm,-,N/A,,Scattered Clouds,0,2013-07-15 05:35:00
12:55 AM,68.0,64.4,88,30.26,10.0,Calm,Calm,-,N/A,,Mostly Cloudy,0,2013-07-15 05:55:00
1:15 AM,66.2,64.4,94,30.27,10.0,Calm,Calm,-,N/A,,Scattered Clouds,0,2013-07-15 06:15:00
1:35 AM,66.2,62.6,88,30.26,10.0,Calm,Calm,-,N/A,,Scattered Clouds,0,2013-07-15 06:35:00
1:55 AM,66.2,62.6,88,30.26,10.0,Calm,Calm,-,N/A,,Scattered Clouds,0,2013-07-15 06:55:00
2:15 AM,64.4,62.6,94,30.27,10.0,Calm,Calm,-,N/A,,Scattered Clouds,0,2013-07-15 07:15:00
2:35 AM,64.4,62.6,94,30.27,7.0,Calm,Calm,-,N/A,,Scattered Clouds,0,2013-07-15 07:35:00
2:55 AM,64.4,62.6,94,30.27,7.0,Calm,Calm,-,N/A,,Scattered Clouds,0,2013-07-15 07:55:00
3:15 AM,64.4,62.6,94,30.27,7.0,Calm,Calm,-,N/A,,Mostly Cloudy,0,2013-07-15 08:15:00
3:35 AM,64.4,62.6,94,30.26,7.0,Calm,Calm,-,N/A,,Mostly Cloudy,0,2013-07-15 08:35:00
3:55 AM,64.4,62.6,94,30.27,10.0,Calm,Calm,-,N/A,,Scattered Clouds,0,2013-07-15 08:55:00
4:15 AM,64.4,62.6,94,30.27,7.0,Calm,Calm,-,N/A,,Clear,0,2013-07-15 09:15:00
4:35 AM,64.4,62.6,94,30.27,7.0,Calm,Calm,-,N/A,,Clear,0,2013-07-15 09:35:00
4:55 AM,64.4,62.6,94,30.27,10.0,Calm,Calm,-,N/A,,Clear,0,2013-07-15 09:55:00
5:15 AM,64.4,62.6,94,30.27,10.0,Calm,Calm,-,N/A,,Clear,0,2013-07-15 10:15:00
5:35 AM,64.4,62.6,94,30.28,10.0,Calm,Calm,-,N/A,,Clear,0,2013-07-15 10:35:00
5:55 AM,62.6,60.8,94,30.28,5.0,Calm,Calm,-,N/A,,Clear,0,2013-07-15 10:55:00
6:15 AM,64.4,62.6,94,30.28,7.0,ESE,3.5,-,N/A,,Clear,110,2013-07-15 11:15:00
6:35 AM,66.2,64.4,94,30.28,7.0,Calm,Calm,-,N/A,,Clear,0,2013-07-15 11:35:00
6:55 AM,68.0,66.2,94,30.28,7.0,Calm,Calm,-,N/A,,Clear,0,2013-07-15 11:55:00
7:15 AM,69.8,66.2,88,30.29,10.0,Calm,Calm,-,N/A,,Scattered Clouds,0,2013-07-15 12:15:00
7:35 AM,71.6,68.0,88,30.29,10.0,Calm,Calm,-,N/A,,Mostly Cloudy,0,2013-07-15 12:35:00
7:55 AM,71.6,68.0,88,30.30,10.0,Calm,Calm,-,N/A,,Mostly Cloudy,0,2013-07-15 12:55:00
8:15 AM,71.6,68.0,88,30.30,10.0,Calm,Calm,-,N/A,,Scattered Clouds,0,2013-07-15 13:15:00
8:35 AM,75.2,69.8,83,30.30,10.0,Calm,Calm,-,N/A,,Clear,0,2013-07-15 13:35:00
8:55 AM,77.0,69.8,78,30.30,10.0,South,3.5,-,N/A,,Clear,180,2013-07-15 13:55:00
9:15 AM,78.8,71.6,78,30.30,10.0,South,4.6,-,N/A,,Clear,170,2013-07-15 14:15:00
9:35 AM,80.6,71.6,74,30.30,10.0,South,4.6,-,N/A,,Clear,180,2013-07-15 14:35:00
9:55 AM,80.6,69.8,70,30.30,10.0,South,3.5,-,N/A,,Scattered Clouds,190,2013-07-15 14:55:00
10:15 AM,80.6,69.8,70,30.30,10.0,South,5.8,-,N/A,,Mostly Cloudy,190,2013-07-15 15:15:00
10:35 AM,80.6,69.8,70,30.30,10.0,SSW,6.9,-,N/A,,Overcast,200,2013-07-15 15:35:00
10:55 AM,80.6,69.8,70,30.30,10.0,WSW,5.8,-,N/A,,Overcast,240,2013-07-15 15:55:00
11:15 AM,80.6,69.8,70,30.30,10.0,WSW,5.8,-,N/A,,Overcast,240,2013-07-15 16:15:00
11:35 AM,82.4,69.8,66,30.30,10.0,SSW,6.9,-,N/A,,Scattered Clouds,210,2013-07-15 16:35:00
11:55 AM,82.4,69.8,66,30.29,10.0,WSW,9.2,-,N/A,,Scattered Clouds,240,2013-07-15 16:55:00
12:15 PM,84.2,69.8,62,30.29,10.0,SSW,6.9,-,N/A,,Scattered Clouds,200,2013-07-15 17:15:00
12:35 PM,84.2,69.8,62,30.29,10.0,South,9.2,-,N/A,,Scattered Clouds,180,2013-07-15 17:35:00
12:55 PM,82.4,69.8,66,30.29,10.0,South,6.9,-,N/A,,Mostly Cloudy,190,2013-07-15 17:55:00
1:15 PM,82.4,69.8,66,30.29,10.0,SW,5.8,-,N/A,,Overcast,230,2013-07-15 18:15:00
1:35 PM,82.4,69.8,66,30.29,10.0,SSW,6.9,-,N/A,,Mostly Cloudy,210,2013-07-15 18:35:00
1:55 PM,84.2,69.8,62,30.28,10.0,SW,8.1,-,N/A,,Scattered Clouds,220,2013-07-15 18:55:00
2:15 PM,84.2,69.8,62,30.28,10.0,South,10.4,-,N/A,,Scattered Clouds,180,2013-07-15 19:15:00
2:35 PM,84.2,71.6,66,30.28,10.0,South,11.5,-,N/A,,Mostly Cloudy,180,2013-07-15 19:35:00
2:55 PM,80.6,71.6,74,30.28,10.0,SSE,10.4,-,N/A,,Mostly Cloudy,160,2013-07-15 19:55:00
3:15 PM,82.4,71.6,70,30.27,10.0,SSE,5.8,-,N/A,,Scattered Clouds,150,2013-07-15 20:15:00
3:35 PM,84.2,69.8,62,30.27,10.0,SSE,9.2,-,N/A,,Clear,160,2013-07-15 20:35:00
3:55 PM,84.2,71.6,66,30.26,10.0,SSE,9.2,-,N/A,,Scattered Clouds,160,2013-07-15 20:55:00
4:15 PM,82.4,71.6,70,30.26,10.0,SSE,6.9,-,N/A,,Mostly Cloudy,160,2013-07-15 21:15:00
4:35 PM,82.4,71.6,70,30.26,10.0,SSE,9.2,-,N/A,,Mostly Cloudy,150,2013-07-15 21:35:00
4:55 PM,82.4,71.6,70,30.25,10.0,South,5.8,-,N/A,,Mostly Cloudy,170,2013-07-15 21:55:00
5:15 PM,82.4,71.6,70,30.25,10.0,SSE,5.8,-,N/A,,Mostly Cloudy,150,2013-07-15 22:15:00
5:35 PM,84.2,71.6,66,30.25,10.0,SSW,6.9,-,N/A,,Scattered Clouds,200,2013-07-15 22:35:00
5:55 PM,82.4,71.6,70,30.24,10.0,SSE,6.9,-,N/A,,Scattered Clouds,160,2013-07-15 22:55:00
6:15 PM,82.4,71.6,70,30.24,10.0,SSE,5.8,-,N/A,,Scattered Clouds,150,2013-07-15 23:15:00
6:35 PM,82.4,71.6,70,30.24,10.0,SSE,8.1,-,N/A,,Scattered Clouds,160,2013-07-15 23:35:00
6:55 PM,82.4,71.6,70,30.24,10.0,SSE,5.8,-,N/A,,Mostly Cloudy,150,2013-07-15 23:55:00
7:15 PM,82.4,71.6,70,30.24,10.0,SSE,4.6,-,N/A,,Scattered Clouds,150,2013-07-16 00:15:00
7:35 PM,80.6,71.6,74,30.24,10.0,SSE,4.6,-,N/A,,Clear,160,2013-07-16 00:35:00
7:55 PM,80.6,71.6,74,30.24,10.0,SSE,4.6,-,N/A,,Clear,150,2013-07-16 00:55:00
8:15 PM,78.8,71.6,78,30.24,10.0,SE,3.5,-,N/A,,Clear,140,2013-07-16 01:15:00
8:35 PM,78.8,71.6,78,30.24,10.0,SE,3.5,-,N/A,,Clear,130,2013-07-16 01:35:00
8:55 PM,77.0,71.6,83,30.25,10.0,SE,3.5,-,N/A,,Scattered Clouds,130,2013-07-16 01:55:00
9:15 PM,75.2,71.6,89,30.25,10.0,ESE,3.5,-,N/A,,Scattered Clouds,120,2013-07-16 02:15:00
9:35 PM,75.2,71.6,89,30.26,10.0,ESE,4.6,-,N/A,,Scattered Clouds,110,2013-07-16 02:35:00
9:55 PM,75.2,71.6,89,30.26,10.0,ESE,4.6,-,N/A,,Mostly Cloudy,110,2013-07-16 02:55:00
10:15 PM,75.2,71.6,89,30.26,10.0,SE,3.5,-,N/A,,Scattered Clouds,130,2013-07-16 03:15:00
10:35 PM,75.2,71.6,89,30.25,10.0,SE,4.6,-,N/A,,Clear,130,2013-07-16 03:35:00
10:55 PM,75.2,71.6,89,30.25,10.0,ESE,4.6,-,N/A,,Scattered Clouds,120,2013-07-16 03:55:00
11:15 PM,75.2,71.6,89,30.25,10.0,SE,3.5,-,N/A,,Mostly Cloudy,130,2013-07-16 04:15:00
11:35 PM,75.2,71.6,89,30.26,10.0,SE,4.6,-,N/A,,Mostly Cloudy,130,2013-07-16 04:35:00
11:55 PM,75.2,71.6,89,30.25,10.0,SE,3.5,-,N/A,,Scattered Clouds,130,2013-07-16 04:55:00